Location: Unnamed
(50.8592°N, 5.7868°E)
Time: 00:48:33
(UTC+01:00)

ISS - Visible Passes

Search period start: 28 January 2022 00:00
Search period end: 07 February 2022 00:00
Orbit: 413 x 422 km, 51.6° (Epoch: 27 January)

Date Brightness Start Highest point End Pass type
(mag) Time Alt. Az. Time Alt. Az. Time Alt. Az.
28 Jan -3.8 18:16:19 10° W 18:19:39 76° N 18:22:26 14° E visible
28 Jan -2.4 19:53:08 10° WNW 19:55:22 39° W 19:55:22 39° W visible
29 Jan -3.9 19:05:02 10° WNW 19:08:23 90° NW 19:09:19 45° ESE visible
29 Jan -0.3 20:41:57 10° W 20:42:15 12° W 20:42:15 12° W visible
30 Jan -3.8 18:16:55 10° W 18:20:16 80° N 18:23:19 12° E visible
30 Jan -2.4 19:53:45 10° W 19:56:15 37° WSW 19:56:15 37° WSW visible
31 Jan -3.4 19:05:35 10° WNW 19:08:53 59° SSW 19:10:19 30° SE visible
31 Jan -0.3 20:43:04 10° WSW 20:43:15 11° WSW 20:43:15 11° WSW visible
01 Feb -3.6 18:17:26 10° WNW 18:20:47 76° SSW 18:24:06 10° ESE visible
01 Feb -1.7 19:54:31 10° W 19:57:12 22° SW 19:57:24 22° SSW visible
02 Feb -2.2 19:06:10 10° W 19:09:12 32° SSW 19:11:41 13° SSE visible
03 Feb -2.7 18:17:55 10° W 18:21:08 44° SSW 18:24:20 10° SE visible
03 Feb -0.7 19:56:23 10° WSW 19:57:14 11° SW 19:58:05 10° SSW visible
04 Feb -0.9 19:07:08 10° W 19:09:17 16° SW 19:11:26 10° S visible
05 Feb -1.3 18:18:33 10° W 18:21:17 23° SW 18:24:00 10° SSE visible
